Regional Weather Roundup
Issued by NWS Boston, MA

Home | Current Version | Previous Version | Text Only | Print | Product List | Glossary On
Versions: 1 2 3 4 5 6 7 8 9 10 11 12 13 14 15 16 17 18 19 20 21 22 23 24 25 26 27 28 29 30 31 32 33 34 35 36 37 38 39 40 41 42 43 44 45 46 47 48 49 50
877
ASUS41 KBOX 241110
RWRBOX

REGIONAL WEATHER ROUNDUP
NATIONAL WEATHER SERVICE TAUNTON MA
700 AM EDT SAT JUN 24 2017

NOTE:  "FAIR" INDICATES FEW OR NO CLOUDS BELOW 12,000 FEET WITH NO
SIGNIFICANT WEATHER AND/OR OBSTRUCTIONS TO VISIBILITY.

MAZALL-241200-
EASTERN MASSACHUSETTS

CITY           SKY/WX    TMP DP  RH WIND       PRES   REMARKS
BOSTON         CLOUDY    75  71  87 SW13      29.53S
BEVERLY        PTSUNNY   77  72  84 SW9       29.52S
LAWRENCE       CLOUDY    77  72  84 SW12      29.54S
BEDFORD        CLOUDY    76  69  79 SW5       29.51F
BLUE HILL        N/A     73  69  87 SW14      29.55F
NORWOOD        CLOUDY    75  72  90 S5        29.54S
MARSHFIELD     MOSUNNY   75  72  88 SW13G20   29.55S
PLYMOUTH       CLOUDY    72  68  87 SW13G18   29.57F
TAUNTON        CLOUDY    73  68  84 S12G18    29.57S
NEW BEDFORD    CLOUDY    71  68  90 SW14G23   29.58F
$$

MAZALL-241200-
CAPE COD AND THE ISLANDS

CITY           SKY/WX    TMP DP  RH WIND       PRES   REMARKS
FALMOUTH       NOT AVBL
HYANNIS        CLOUDY    71  69  93 SW18G26   29.59F FOG
CHATHAM        CLOUDY    69  68  96 SW9G17    29.62S FOG
PROVINCETOWN   CLOUDY    68  66  93 SW17      29.57S FOG
NANTUCKET      CLOUDY    66  66 100 SW13      29.65S FOG
MARTHAS VNYRD  FOG       69  67  93 SW14      29.62S VSB 1
$$

MAZALL-241200-
CENTRAL AND WESTERN MASSACHUSETTS

CITY           SKY/WX    TMP DP  RH WIND       PRES   REMARKS
WORCESTER      CLOUDY    71  68  90 SW13      29.58S
FITCHBURG      NOT AVBL
ORANGE         LGT RAIN  73  72  96 S7        29.56R FOG
SPRINGFIELD    LGT RAIN  74  70  87 SW8       29.55R
WESTFIELD      CLOUDY    75  72  90 SW6       29.55
NORTH ADAMS    LGT RAIN  69  67  93 W5        29.57R
PITTSFIELD     CLOUDY    70  68  93 SW6       29.58S
$$

RIZALL-241200-
RHODE ISLAND

CITY           SKY/WX    TMP DP  RH WIND       PRES   REMARKS
PROVIDENCE     CLOUDY    74  72  93 SW12      29.58S
NEWPORT        CLOUDY    68  67  96 S10G20    29.60S FOG
BLOCK ISLAND   FOG       68  66  94 SW15      29.62S VSB 1/4
WESTERLY       CLOUDY    72  69  90 SW12      29.61R
$$

CTZALL-241200-
CONNECTICUT

CITY           SKY/WX    TMP DP  RH WIND       PRES   REMARKS
BRADLEY INTL   CLOUDY    74  72  93 S9        29.55S
HARTFORD       LGT RAIN  75  71  87 SW7       29.55F
BRIDGEPORT     RAIN      72  69  90 SW6       29.58F FOG
DANBURY        LGT RAIN  71  70  96 SW5       29.60F
GROTON         CLOUDY    70  67  90 SW12      29.59S
NEW HAVEN      CLOUDY    72  70  94 W9        29.58F
CHESTER        NOT AVBL
MERIDEN        LGT RAIN  72  71  97 S7        29.58R
WILLIMANTIC    CLOUDY    76  71  85 SW7       29.58R
OXFORD         CLOUDY    72  66  83 VRB5      29.60F
$$

MEZ002-015-021-024-NHZ003-005-008-011-012-014-VTZ005-008-241200-
NORTHERN NEW ENGLAND

CITY           SKY/WX    TMP DP  RH WIND       PRES   REMARKS
PORTLAND ME    CLOUDY    70  68  93 SW10      29.47R
BANGOR ME      CLOUDY    65  64  97 S9        29.45S FOG
CONCORD NH     LGT RAIN  74  71  91 SW7       29.52R
MANCHESTER NH  LGT RAIN  77  69  76 SW9       29.51R
NASHUA NH      LGT RAIN  76  72  87 W3        29.53R
PORTSMOUTH NH  PTSUNNY   76  71  83 SW12G18   29.49R
JAFFREY NH     LGT RAIN  72  72 100 SW10      29.57R
KEENE NH       RAIN      72  69  90 SW6       29.56R
BURLINGTON VT  CLOUDY    70  69  97 CALM      29.51R
MT. WASHINGTON LGT RAIN  50  50 100 W54         N/A  VSB 0
$$

NYZ052-076-241200-
EASTERN NEW YORK

CITY           SKY/WX    TMP DP  RH WIND       PRES   REMARKS
ALBANY         LGT RAIN  72  67  84 SW3       29.56S
NEW YORK CITY  HVY RAIN  72  72 100 NE3       29.57F FOG
$$

ANZALL-241200-
MARINE OBSERVATIONS

STATION/POSITION TIME  TEMP    WIND        PRES    VSBY  WAVE
                       AIR SEA DIR/SP/G                  HT/PER
                 (UTC) (F)     (DEG/KT/KT) (MB)    (MI)  (FT/S)
BOSTON BUOY      0950   63 57  190/  8/ 10 1000.5          2/ 7
BUZZARDS BAY     1000   66     210/ 23/ 24 1002.5R
NANTUCKET SOUND  1050      65              1002.4F         3/ 3
MASS BAY-STELLWA 1004   62 58  180/ 12/ 14  999.5R         3/ 4
ISLE OF SHOALS   1000   69     200/ 25/ 27  998.3R
S OF BLOCK IS    1055      63                N/A           7/ 7
$$

......................KEY.........................
  SKY/WX - SKY CONDITION/PRESENT WEATHER
  TMP    - TEMPERATURE IN FAHRENHEIT
  DWPT   - DEWPOINT IN FAHRENHEIT
  RH     - RELATIVE HUMIDITY IN PERCENT
  WIND   - DIRECTION AND SPEED IN MPH
  PRES   - MEAN SEA LEVEL PRESSURE IN INCHES OF HG
  WCI    - WIND CHILL INDEX
  VSB    - VISIBILITY IN MILES
  HX     - HEAT INDEX
  TC     - TEMPERATURE IN CELSIUS
  VRB    - VARIABLE WIND DIRECTION
  N/A    - NOT AVAILABLE




USA.gov is the U.S. government's official web portal to all federal, state and local government web resources and services.